Regional Weather Roundup
Issued by NWS

Home | Current Version | Previous Version | Graphics & Text | Print | Product List | Glossary On
Versions: 1 2 3 4 5 6 7 8 9 10 11 12 13 14 15 16 17 18 19 20 21 22 23 24 25 26 27 28 29 30 31 32 33 34 35 36 37 38 39 40 41 42 43 44 45 46 47 48 49 50
000
ASUS45 KTFX 280310
RWRMT
MONTANA REGIONAL WEATHER ROUNDUP
NATIONAL WEATHER SERVICE GREAT FALLS MT
900 PM MDT TUE SEP 27 2016

NOTE: "FAIR" INDICATES FEW OR NO CLOUDS BELOW 12000 FEET WITH NO
SIGNIFICANT WEATHER AND/OR OBSTRUCTIONS TO VISIBILITY.

MTZ001>007-043-280400-
WEST OF THE DIVIDE

CITY           SKY/WX    TMP DP  RH WIND       PRES   REMARKS
KALISPELL      CLEAR     65  43  44 W3        30.04R
MISSOULA       CLEAR     63  46  54 NW6       30.07R
BUTTE          CLEAR     56  40  55 S8        30.20R
MULLAN PASS    CLEAR     57  41  55 W3        30.21R
ANACONDA         N/A     61  37  41 SW7       30.17R
DEER LODGE       N/A     61  39  44 W5        30.18R
EUREKA           N/A     63  43  48 N3        30.04R
HAMILTON         N/A     59  48  67 CALM      30.08R
LIBBY            N/A     63  45  51 CALM      30.03R
PLAINS           N/A     67  47  48 SE3       30.04R
RONAN            N/A     58  45  62 CALM      30.09R
$$

MTZ008-052>055-280400-
SOUTHWEST MONTANA

CITY           SKY/WX    TMP DP  RH WIND       PRES   REMARKS
BOZEMAN        CLEAR     62  42  47 S12       30.14R
DILLON         CLEAR     62  36  37 S8        30.15R
W YELLOWSTONE    N/A     54  37  54 NE3       30.28R
ENNIS          CLEAR     61  34  36 CALM      30.22R
THREE FORKS      N/A     56  56 100 CALM      30.11R
TWIN BRIDGES     N/A     60  40  47 N1        30.12R
$$

MTZ009-010-012-014-046-048-049-054-280400-
EAST SLOPES AND CENTRAL MONTANA

CITY           SKY/WX    TMP DP  RH WIND       PRES   REMARKS
CUT BANK       CLEAR     51  37  58 N16       30.21R
GREAT FALLS    PTCLDY    60  45  57 N14       30.16R
MALMSTROM AFB  PTCLDY    62  46  55 NE16G24   30.15R
HELENA         CLEAR     68  39  34 SW7       30.09R
CHOTEAU          N/A     54  43  66 N14       30.21R
CONRAD           N/A     54  42  63 NW6       30.20R
$$

MTZ011-013-016-021-045-047-050-051-280400-
NORTH CENTRAL MONTANA

CITY           SKY/WX    TMP DP  RH WIND       PRES   REMARKS
HAVRE            N/A     63  47  55 N10       30.11R
LEWISTOWN      CLEAR     56  41  57 SE9       30.11R
N BAR RANCH      N/A     57  41  54 W7        30.16R
CHINOOK          N/A     64  46  52 NW3       30.09R
$$

MTZ017>020-022>027-061-062-280400-
NORTHEAST MONTANA

CITY           SKY/WX    TMP DP  RH WIND       PRES   REMARKS
GLASGOW        CLEAR     65  46  50 VRB7      29.96R
JORDAN           N/A     56  49  77 W5        30.01R
SIDNEY         CLEAR     61  48  62 CALM      29.95R
WOLF POINT     CLEAR     58  51  78 CALM      29.96R
PLENTYWOOD       N/A     70  48  46 CALM      29.95R
POPLAR           N/A     72  48  43 CALM      29.96R
SCOBEY           N/A     59  43  55 CALM      29.98R
$$

MTZ028>42-056>058-280400-
SOUTHCENTRAL AND SOUTHEAST MONTANA

CITY           SKY/WX    TMP DP  RH WIND       PRES   REMARKS
BAKER          CLEAR     59  49  69 CALM      30.04R
BILLINGS       CLEAR     67  40  37 NW9       30.08R
LIVINGSTON     CLEAR     54  39  57 W3        30.15R
MILES CITY     CLEAR     63  48  58 W8        30.02R
BIG TIMBER     CLEAR     63  36  36 SW7       30.17R
EKALAKA          N/A     64  41  43 SE1       30.05R
FORSYTH          N/A     64  46  52 CALM      30.03R
LAUREL           N/A     68  41  37 W2        30.06R
ROUNDUP          N/A     68  40  35 CALM      30.00R
$$

REGIONAL REPORTS...DAKOTAS

CITY           SKY/WX    TMP DP  RH WIND       PRES   REMARKS
WILLISTON      CLEAR     56  49  77 CALM      29.96R
MINOT          CLEAR     52  42  69 CALM      29.99R
DICKINSON      CLEAR     58  46  64 S7        29.99R
BEACH            N/A     54  50  87 S3        30.04R
CROSBY           N/A     52  48  87 E5        29.98S
WATFORD CITY     N/A     59  50  72 E14       29.97R
BISMARCK       CLEAR     52  43  71 NE5       30.00R
GRAND FORKS    CLOUDY    53  46  77 N9        30.00R
FARGO          CLOUDY    54  44  69 N8        29.97R
BUFFALO SD       N/A     65  46  50 NW5       29.98R
RAPID CITY     CLEAR     62  42  47 N10       30.05R
$$

REGIONAL REPORTS...WYOMING/IDAHO/WASHINGTON

CITY           SKY/WX    TMP DP  RH WIND       PRES   REMARKS
GILLETTE       CLEAR     50  46  86 S5        30.13R
SHERIDAN       CLEAR     56  45  66 S5        30.12R
BUFFALO WY     CLEAR     59  41  51 W8        30.19R
CODY           CLEAR     59  46  62 S3        30.21R
YELLOWSTONE LA   N/A     42  37  82 CALM      30.37R
IDAHO FALLS    CLEAR     57  44  62 CALM      30.16R
SALMON         CLEAR     57  45  62 CALM      30.07R
BOISE          CLEAR     71  46  40 SW3       29.99S
SPOKANE        PTCLDY    68  41  37 SW7       30.02S
$$

REGIONAL REPORTS...ALBERTA

CITY           SKY/WX    TMP DP  RH WIND       PRES   REMARKS
EDMONTON       PTCLDY    45  27  49 SW3       30.19R
CALGARY        CLOUDY    50  37  62 W5        30.25R
LETHBRIDGE     MOCLDY    55  36  47 NW7       30.23R
MEDICINE HAT   CLEAR     54  39  58 N10       30.18R
WATERTON GATE    N/A     48  37  66 N3          N/A
CARDSTON         N/A     50  37  62 NW2         N/A
MILK RIVER       N/A     48  39  71 N10         N/A
ONEFOUR          N/A     54  41  62 NW14        N/A
$$

REGIONAL REPORTS...SASKATCHEWAN

CITY           SKY/WX    TMP DP  RH WIND       PRES   REMARKS
SWIFT CURRENT  CLEAR     54  45  71 NW15G21   30.09R
REGINA         CLEAR     59  46  63 SE9       29.96R
SASKATOON      PTCLDY    55  45  67 NW15      30.06R
VAL MARIE        N/A     59  45  58 NE9         N/A
ROCKGLEN         N/A     66  46  48 NW13G20     N/A
ASSINIBOIA       N/A     43  32  65 W6          N/A
$$



USA.gov is the U.S. government's official web portal to all federal, state and local government web resources and services.